Theta_e
314 313 313 313 312 313 312 313 314 315 316 317 320 323 326 332 337 341 343 343 343 343 342 341 338 336 338 340 339 338 338 335 331 328 327 328 331 332 331 326 321 325 328 325 328 334 334 328 324 326 324 322 325 326 324 323 323 321 320 318 316 315 316 315 315 318 321 320 321 326 332 334 335 332 331 335 337 338 338 338 338 336 336 334 328
315 315 314 313 313 313 313 313 314 315 316 317 321 325 326 328 333 338 341 342 342 343 343 340 338 334 333 338 340 339 338 336 333 330 329 329 330 332 332 329 325 327 331 332 332 336 337 331 328 330 328 324 325 328 327 325 322 321 319 318 316 315 315 315 315 315 316 317 315 319 325 328 329 328 329 336 338 338 339 339 338 337 337 334 329
315 315 314 314 313 313 313 313 314 315 316 316 320 326 329 328 331 336 338 339 340 341 342 341 339 337 334 335 339 339 338 338 336 334 333 332 332 332 333 331 328 326 329 333 335 337 338 333 329 331 331 327 325 328 328 326 323 321 318 317 315 315 315 315 315 315 315 316 315 318 322 323 325 327 330 336 337 339 340 339 338 337 337 335 331
315 315 315 314 314 314 314 313 313 315 316 318 320 325 331 330 331 335 336 336 337 338 339 340 339 339 338 337 338 338 337 336 336 335 334 333 334 334 333 332 330 326 326 331 336 338 338 334 330 331 332 330 327 325 324 323 322 320 318 316 315 315 316 315 315 315 315 315 316 320 325 325 327 331 333 335 337 340 340 338 337 337 336 335 333
315 315 315 314 314 314 314 314 313 313 316 319 320 323 329 331 332 334 334 334 334 333 334 338 340 339 339 338 338 339 338 336 335 336 334 334 336 335 333 333 331 328 326 329 335 338 337 334 330 331 333 332 330 327 323 321 320 319 317 316 315 315 316 316 315 315 315 315 316 321 327 329 329 332 335 336 337 339 339 338 336 337 336 334 334
315 315 315 315 314 314 314 314 313 313 315 318 319 321 326 331 332 332 332 331 330 328 328 335 340 340 339 338 338 339 339 337 335 336 335 335 337 336 333 333 332 330 328 328 333 336 336 335 331 330 332 333 332 329 325 322 320 318 316 315 315 315 315 315 315 315 315 315 315 318 323 328 330 334 336 336 337 337 337 337 336 336 336 334 335
315 315 315 315 315 315 314 313 314 313 313 316 320 323 327 331 332 330 329 328 326 322 323 331 338 340 340 338 337 337 338 337 335 334 334 333 336 336 334 333 332 332 331 329 330 333 336 336 333 332 333 334 334 332 327 323 319 317 315 314 314 315 315 315 314 315 316 316 316 319 324 328 331 335 337 337 336 335 335 335 335 336 336 335 335
314 314 315 315 315 315 315 314 313 314 314 315 320 326 330 332 331 329 327 326 324 320 319 325 333 339 340 339 337 337 337 337 335 333 333 335 337 337 335 334 333 332 332 330 329 331 334 336 335 335 335 336 335 334 328 323 320 317 315 314 314 314 314 314 314 315 315 316 319 326 332 333 333 334 337 337 335 335 335 334 334 335 335 335 335
313 312 313 314 315 315 315 315 313 314 315 316 320 326 332 333 332 329 327 326 324 320 317 317 326 336 340 339 338 337 336 336 335 333 334 336 337 337 335 334 335 334 332 332 332 332 333 333 333 335 335 335 335 335 331 325 323 320 316 315 314 314 314 314 315 315 316 318 323 330 335 336 335 334 335 336 336 336 336 333 333 334 335 335 335
312 311 311 313 314 315 315 315 314 314 315 318 323 329 332 334 333 330 327 326 324 321 318 316 320 332 339 339 338 338 337 336 335 335 335 335 335 335 334 332 333 334 332 331 332 333 333 332 331 333 334 333 331 333 333 327 323 320 316 315 314 314 314 314 315 316 316 319 324 331 336 336 335 333 333 336 337 337 335 332 334 335 336 336 336
311 311 311 312 313 314 315 315 315 317 320 322 326 330 333 333 332 331 327 325 323 320 318 317 317 325 336 339 338 337 338 337 336 336 337 337 336 333 331 331 332 333 333 330 329 332 334 334 332 332 333 332 327 328 330 325 320 318 315 314 315 314 315 315 316 316 317 323 329 333 336 336 333 331 333 335 336 337 334 333 335 336 336 337 337
311 311 311 311 312 313 314 315 315 317 321 325 327 328 331 332 330 328 324 321 320 318 315 316 318 320 328 337 339 338 338 338 335 333 335 336 335 332 329 330 333 333 333 331 326 327 332 334 332 330 331 331 328 326 327 324 318 317 315 314 315 315 315 316 316 317 319 327 335 336 336 336 333 333 335 336 336 336 335 335 336 336 336 337 337
310 311 311 310 311 312 312 313 314 315 318 322 327 327 327 328 326 322 320 318 316 316 315 314 319 320 322 331 339 339 338 338 335 332 333 333 332 331 330 330 333 334 333 332 326 324 328 331 331 330 331 332 331 328 327 325 317 315 315 314 315 314 315 317 317 320 323 328 334 335 335 335 333 334 337 337 336 336 336 336 337 337 337 337 337
310 310 310 310 311 311 312 312 313 315 315 318 324 328 324 321 321 318 316 317 316 315 316 314 318 322 320 323 335 339 338 337 336 334 335 335 333 332 331 331 333 333 332 331 328 325 325 328 329 330 332 333 333 329 329 327 319 316 317 314 315 314 315 318 322 327 330 331 333 334 334 333 332 334 337 337 337 336 335 334 336 338 337 337 337
310 310 310 311 311 311 312 312 312 314 315 315 319 326 326 318 316 318 316 317 317 315 316 316 316 321 321 321 330 338 339 337 336 335 335 336 336 335 333 332 333 333 332 330 329 328 326 326 326 329 332 333 331 328 330 329 321 318 318 315 315 314 315 320 326 332 334 335 335 335 335 334 333 334 337 337 337 337 336 334 334 337 337 336 336
310 310 310 311 311 312 312 312 312 312 314 315 315 321 328 324 315 316 317 316 316 316 315 316 316 320 322 322 329 336 338 339 337 335 334 334 336 335 333 334 335 336 334 330 329 328 327 325 324 326 330 331 328 326 329 330 324 321 320 316 315 315 316 319 326 335 338 338 337 337 337 335 333 335 337 338 338 337 337 336 334 336 337 336 336
310 310 310 311 311 312 312 312 312 312 313 315 315 317 325 329 321 315 317 317 316 316 315 315 316 319 323 324 327 331 335 338 339 337 335 334 335 335 333 333 334 336 336 332 330 329 327 326 324 323 325 328 326 324 327 330 327 324 321 317 314 315 319 321 326 337 341 339 339 338 335 331 331 335 337 338 338 338 338 337 335 336 338 337 335
310 310 311 311 312 312 312 312 312 313 312 313 316 316 320 328 327 318 316 317 316 315 316 315 315 319 324 325 326 327 329 334 338 338 336 335 335 334 333 332 331 334 335 333 331 331 330 329 326 323 323 325 326 323 325 329 329 325 322 319 315 316 324 327 328 336 341 340 338 334 330 329 332 335 336 337 338 338 338 336 335 336 338 337 335
310 310 311 312 313 313 313 314 312 312 313 312 315 316 316 323 328 324 316 315 317 316 315 316 315 318 323 323 324 325 325 329 336 339 338 336 334 333 333 333 330 331 334 333 333 332 332 331 330 327 323 323 324 322 323 327 329 329 328 323 316 317 326 330 328 331 337 338 333 329 329 332 334 335 336 336 337 338 338 337 335 336 337 336 335
310 310 311 312 314 314 314 314 313 312 313 313 313 316 317 319 325 327 320 315 317 317 315 316 315 316 320 321 322 324 324 325 332 338 339 338 336 334 333 333 332 332 333 334 333 333 334 332 330 328 323 321 323 321 320 324 330 334 333 326 318 319 325 328 325 324 330 333 329 328 332 334 334 335 335 335 337 339 339 337 336 336 336 336 335
310 310 311 312 314 314 314 314 314 313 312 313 313 315 318 318 321 326 324 317 317 317 316 316 315 316 319 321 322 324 325 323 328 336 339 339 337 335 335 333 334 334 334 335 334 334 334 332 329 328 325 321 321 321 322 328 334 336 335 329 321 320 323 325 324 323 327 331 330 332 335 334 332 332 332 333 336 339 339 338 337 337 337 337 336
310 310 311 312 313 314 313 314 315 314 313 313 314 314 317 319 319 323 326 320 317 317 316 315 316 316 317 320 321 323 325 325 327 333 337 339 337 336 335 335 335 335 334 335 335 334 335 333 329 329 328 324 322 321 325 331 334 334 334 332 325 321 322 325 326 324 326 330 332 335 336 335 332 331 330 331 333 337 338 338 337 337 337 336 336
309 310 310 311 312 313 313 313 315 315 314 313 313 315 317 319 318 321 326 323 317 316 317 316 317 317 318 320 321 322 324 326 327 330 334 338 338 336 336 336 336 336 335 334 334 335 336 335 332 331 330 328 325 322 322 325 328 330 331 329 326 323 322 326 330 327 326 330 332 335 337 336 334 331 329 328 331 334 337 337 338 337 337 337 336
309 309 309 310 311 312 312 313 314 315 315 314 313 315 317 319 319 320 325 326 319 316 318 318 317 318 318 320 321 320 321 325 327 329 332 336 338 337 336 335 336 336 336 334 334 334 336 335 333 332 330 328 327 324 321 322 324 326 327 325 324 323 322 325 329 327 327 331 333 334 336 336 334 332 329 328 329 333 336 338 339 339 338 337 337
308 309 309 310 310 311 311 312 313 314 315 314 314 315 316 319 320 320 324 329 325 318 318 319 318 318 319 320 319 319 320 322 327 330 331 334 337 338 336 335 336 336 336 334 332 333 335 336 334 334 331 326 324 323 322 323 325 325 325 324 322 322 322 322 323 326 329 333 334 333 335 336 335 332 330 329 330 333 336 339 340 339 339 338 337
308 308 309 309 310 311 311 312 313 314 315 315 314 315 317 318 319 320 322 328 331 324 318 319 319 317 319 319 319 318 319 321 326 330 332 332 335 338 337 335 335 335 335 335 332 332 335 336 335 335 333 329 326 324 322 322 324 325 325 325 323 322 321 320 320 323 328 333 335 334 334 336 336 333 331 330 331 333 337 339 340 340 339 339 338
308 308 309 309 310 310 311 312 312 313 315 316 315 315 317 317 318 320 319 323 330 330 322 319 319 318 318 318 319 318 319 322 327 330 331 332 333 336 338 337 335 335 335 335 334 333 334 336 336 335 334 332 331 329 325 321 322 324 325 326 327 324 321 320 320 322 326 331 335 335 335 336 336 335 333 332 331 334 337 340 340 340 340 339 338
307 308 308 309 310 310 311 312 312 313 314 315 316 316 318 318 318 319 318 319 325 327 323 319 317 317 317 318 320 321 320 323 327 329 331 331 332 335 337 337 335 335 336 335 334 333 334 336 337 336 334 333 333 333 330 323 320 321 323 325 328 328 326 323 321 322 325 328 332 335 335 336 336 336 336 333 332 335 338 340 340 340 340 339 338
307 308 308 309 310 310 311 312 313 313 314 315 316 317 318 318 318 319 318 317 319 321 321 319 318 318 319 319 322 324 325 327 330 331 331 331 332 334 336 337 336 335 336 336 334 332 334 336 337 337 335 334 334 335 332 326 321 319 320 322 325 329 331 328 324 324 326 327 329 332 335 336 336 336 337 337 335 335 338 340 340 340 340 340 339
307 308 308 309 310 311 312 312 313 314 315 316 317 318 318 317 318 321 319 317 317 318 319 321 322 321 321 321 320 321 323 327 331 333 333 332 332 334 335 337 337 335 336 338 337 333 334 337 338 337 335 335 335 335 334 330 325 321 320 320 321 324 327 326 324 324 326 327 328 330 334 337 337 336 338 339 338 337 338 338 340 341 340 340 339
307 308 308 309 310 311 312 313 314 315 315 316 317 318 318 317 317 320 319 315 314 314 315 320 323 323 321 320 320 320 321 324 329 332 333 333 333 334 336 337 337 336 336 338 338 337 337 337 338 337 336 336 336 335 335 333 330 327 325 323 321 321 322 322 322 323 326 327 328 330 333 337 338 337 338 339 339 338 338 338 339 340 340 340 339
307 308 308 309 310 312 313 314 315 315 315 316 317 317 318 318 317 319 319 316 315 315 316 321 325 324 322 322 322 323 324 326 329 329 329 332 334 335 336 337 338 337 335 335 336 337 338 339 338 338 338 338 337 335 334 334 333 332 330 327 324 323 322 321 321 323 326 327 328 330 334 337 338 338 339 338 339 339 339 338 339 340 340 340 339
307 308 309 310 311 313 315 316 316 316 316 316 317 318 318 317 316 318 319 319 318 318 320 323 326 328 326 325 326 326 327 328 328 328 327 328 332 334 336 337 337 337 336 336 335 335 338 339 339 339 338 337 335 335 334 333 333 334 334 331 328 325 323 322 322 324 328 330 330 331 333 336 338 339 339 338 339 339 340 339 339 340 340 340 340
307 308 309 311 313 315 318 318 317 316 316 316 317 318 318 317 316 316 316 317 316 317 317 319 322 325 325 326 327 328 329 329 328 328 327 326 327 330 333 335 337 337 337 337 336 336 338 339 338 338 338 335 333 334 334 332 332 334 335 332 330 330 330 329 328 329 331 333 333 333 334 336 339 339 339 338 339 339 340 340 340 340 340 340 340
307 309 310 312 314 318 319 318 316 316 316 316 317 318 318 316 316 315 315 315 315 316 317 318 318 319 321 323 325 328 331 332 332 331 329 326 324 324 329 334 336 337 337 337 336 337 338 338 337 337 337 336 334 334 334 332 331 332 332 330 331 335 336 335 333 331 333 335 335 334 335 337 339 339 338 339 339 339 339 340 340 340 340 340 340
307 309 310 311 315 318 319 318 317 316 316 316 316 318 318 316 315 316 315 315 315 317 319 319 319 319 321 323 324 326 330 333 333 333 331 328 324 321 327 334 336 336 337 337 337 337 337 338 338 336 336 337 336 334 334 333 331 332 331 329 332 337 339 338 334 333 335 338 339 339 338 338 339 339 338 339 339 339 339 340 340 340 340 340 339
308 309 311 313 316 319 319 318 317 316 316 316 316 317 318 316 315 316 315 315 316 318 320 321 321 322 324 325 325 324 328 331 332 332 331 327 323 322 328 334 336 336 336 337 337 336 336 336 337 337 336 337 337 336 336 334 332 332 331 329 333 339 339 336 333 332 331 333 337 339 339 339 339 339 339 339 339 339 339 339 340 340 340 339 339
307 309 311 314 316 318 318 319 318 317 316 316 316 318 318 317 316 316 316 317 318 320 321 321 322 323 325 327 327 325 326 329 331 330 330 327 326 330 334 336 336 336 336 336 335 335 335 335 335 336 336 336 336 337 336 336 335 334 332 331 334 337 335 331 332 331 328 330 335 335 332 335 338 339 338 339 339 339 339 339 339 339 339 339 339
307 309 310 312 314 316 318 319 318 318 317 316 316 317 318 318 317 317 318 320 319 319 320 320 322 324 325 327 329 328 325 326 327 327 328 329 331 334 335 335 335 335 336 336 336 336 336 336 335 335 335 336 336 336 335 335 334 332 332 334 335 333 331 331 333 332 331 335 337 332 327 331 337 338 338 339 339 339 339 339 339 339 339 338 338
307 309 311 312 313 315 318 319 318 318 317 316 316 318 318 318 318 318 320 321 320 319 319 320 323 325 326 327 329 329 326 324 325 326 327 329 332 333 331 330 330 331 333 336 337 337 336 336 335 335 335 335 335 334 333 333 331 330 332 334 334 331 331 333 335 334 336 338 337 333 329 330 336 338 338 339 339 338 339 339 339 339 338 337 337
307 308 311 313 313 314 317 320 320 320 319 318 317 318 318 317 317 318 320 322 322 319 317 319 321 323 326 328 329 328 325 323 325 327 328 329 329 330 329 330 330 330 331 334 336 336 335 335 335 335 334 334 334 334 333 332 333 334 336 336 334 330 331 335 336 337 340 341 336 332 330 330 335 338 339 339 339 339 339 338 339 339 338 336 336
309 310 312 314 314 315 318 320 320 320 320 320 319 318 318 317 318 320 322 323 322 318 316 317 320 322 325 328 329 328 325 323 324 328 330 329 328 329 331 332 333 333 333 334 335 335 334 335 335 335 335 334 334 335 336 336 337 339 339 338 335 332 334 338 339 339 342 339 333 330 329 330 336 339 339 339 340 340 339 339 338 338 338 337 337
309 310 311 313 314 316 318 319 319 319 320 320 319 319 319 318 319 320 321 322 322 320 319 319 320 322 324 325 328 331 330 327 327 328 329 328 327 328 330 331 332 333 333 334 335 335 335 335 335 335 336 336 336 337 337 338 338 339 339 339 337 337 337 338 337 338 340 337 331 329 329 331 336 339 339 339 340 340 339 339 338 338 338 337 336
307 308 309 311 315 317 317 318 319 319 319 320 320 320 320 319 319 320 320 320 321 321 321 320 321 323 324 323 326 331 332 330 330 331 330 327 326 328 329 329 329 329 329 330 331 332 333 333 333 334 335 336 336 336 337 338 338 338 338 338 338 339 338 337 335 337 340 338 332 328 328 331 337 339 338 339 340 339 339 339 338 338 337 336 335
306 308 309 310 313 316 316 317 319 320 319 320 320 320 320 320 320 321 321 321 320 320 321 322 323 324 325 323 325 329 331 330 330 332 333 332 331 332 331 330 330 329 328 329 330 330 331 331 332 332 332 333 334 334 335 337 338 337 337 337 338 337 336 336 334 334 336 334 331 330 332 334 337 338 338 339 339 339 338 338 337 337 336 335 334
306 307 308 309 311 314 315 317 319 320 320 320 320 320 321 321 320 321 323 323 320 320 322 324 323 323 325 324 324 327 331 333 333 331 330 330 332 333 333 333 332 330 328 330 332 332 332 332 333 332 332 332 332 332 334 336 335 334 334 335 334 333 331 331 330 329 328 329 331 335 337 337 337 338 338 338 338 338 337 337 337 337 336 335 334
305 306 307 307 309 312 315 316 319 320 320 320 321 321 322 323 321 320 322 324 323 322 324 325 325 325 328 329 329 329 331 334 335 332 328 327 329 332 332 334 334 333 331 332 333 334 333 332 332 332 332 332 331 331 331 332 331 330 331 330 329 328 328 329 328 327 326 328 333 337 338 337 337 337 337 337 337 337 337 336 336 336 336 335 334
305 306 307 307 308 309 312 314 316 318 319 320 321 321 322 323 323 321 321 323 323 324 325 325 325 325 327 330 332 334 334 334 334 333 332 330 329 328 329 330 333 334 334 334 334 334 334 333 331 330 330 331 331 330 329 328 328 328 327 326 326 327 328 329 328 327 327 331 335 338 338 337 337 336 337 337 337 337 337 336 335 336 336 335 334
305 306 307 307 307 308 309 311 313 315 317 319 321 322 322 322 323 324 323 323 322 323 324 325 325 325 324 326 328 330 332 333 333 332 332 332 330 328 327 329 331 334 334 334 333 333 333 333 331 330 329 328 330 331 330 327 327 325 324 325 326 326 327 328 327 329 332 335 337 338 337 337 336 336 336 337 338 337 337 337 336 336 336 335 333
305 305 306 307 307 308 308 309 311 313 316 317 319 321 322 322 322 323 324 324 323 323 323 323 324 326 326 326 326 326 328 329 330 329 327 327 326 325 325 328 332 334 334 334 333 333 332 332 332 332 330 328 329 330 328 326 327 327 327 328 330 331 332 332 331 334 338 339 338 338 338 337 336 335 335 336 337 338 338 337 337 336 335 334 333
305 305 306 307 307 308 309 309 310 312 314 316 317 319 320 321 322 322 323 323 323 323 323 323 323 324 326 326 326 326 326 326 326 325 324 325 326 325 325 327 331 333 334 334 334 334 334 333 332 333 331 329 331 332 330 329 332 334 334 334 336 337 337 336 335 337 339 340 340 339 338 337 336 335 334 335 336 337 337 337 336 336 335 334 333
Wind_Speed
24 26 24 23 22 20 20 25 30 35 35 35 37 38 39 38 36 35 34 38 41 43 44 38 34 35 35 37 38 36 36 36 36 37 35 36 33 29 29 31 31 31 30 29 28 26 25 26 27 27 29 31 31 29 28 25 23 21 20 18 16 15 14 13 12 11 12 12 12 13 15 16 15 15 14 11 11 11 10 10 9 9 8 6 6
22 24 24 21 20 20 19 19 24 33 38 39 40 41 40 39 37 34 33 35 36 40 41 36 35 38 37 38 40 38 36 35 34 34 34 35 33 30 29 31 32 33 32 31 29 26 25 26 29 29 30 32 32 32 30 28 25 23 21 20 18 17 15 14 14 14 15 15 15 16 17 18 17 16 14 12 11 11 10 9 9 8 8 7 6
22 24 28 27 25 24 23 20 20 28 37 41 42 42 40 38 37 32 29 29 28 31 34 32 35 39 39 39 40 39 35 33 33 33 33 34 33 32 30 32 33 34 35 33 30 28 26 28 31 32 32 33 34 34 33 32 29 26 24 22 20 19 17 16 16 16 16 16 16 17 17 17 16 14 14 13 11 11 10 9 9 8 8 7 7
24 24 27 30 28 26 28 27 22 23 34 42 42 42 41 39 36 30 25 23 21 21 23 25 31 37 40 40 41 39 33 30 31 32 33 34 34 34 32 33 35 36 36 36 33 30 28 29 31 34 34 34 35 35 35 33 31 28 25 23 21 21 19 17 16 16 17 17 16 16 15 15 13 10 11 12 11 11 10 9 8 8 8 7 7
26 26 28 30 31 29 30 31 28 23 28 39 43 42 42 40 35 29 25 23 21 19 19 23 31 39 42 42 41 39 35 34 34 35 36 36 36 37 35 33 34 36 37 38 36 32 30 30 32 35 35 35 36 35 34 32 30 27 25 23 22 22 19 17 17 16 17 17 17 15 13 13 13 10 9 10 11 11 10 9 9 8 8 8 7
30 27 26 28 32 33 33 33 33 28 26 34 42 43 41 41 36 31 29 27 24 21 21 25 34 41 45 45 44 43 43 42 39 38 38 38 38 39 36 33 33 35 37 38 38 35 32 32 33 35 36 37 37 36 34 32 29 26 23 23 23 23 20 19 18 17 17 17 18 18 15 14 14 11 10 10 10 10 10 9 9 8 8 9 8
33 31 27 24 28 33 35 36 35 32 28 30 38 43 41 40 37 33 32 29 26 23 24 28 33 39 45 47 47 47 47 46 41 38 38 38 39 39 36 33 33 35 37 39 39 38 35 34 34 36 37 38 38 38 36 33 29 25 23 24 24 23 22 21 20 17 17 18 18 18 17 17 16 13 11 10 8 7 8 9 9 9 9 9 9
32 33 32 28 24 28 32 36 37 33 28 29 36 42 40 38 37 34 33 30 27 24 26 29 31 35 43 48 50 48 47 46 42 38 38 38 39 40 37 35 34 34 36 38 40 40 38 37 36 37 39 39 38 38 37 33 29 27 25 25 25 24 24 22 20 18 18 18 17 17 16 16 18 17 14 12 10 8 8 8 9 9 9 9 9
33 35 34 32 26 23 27 32 38 36 29 30 37 41 39 38 37 35 34 31 27 26 28 27 27 31 41 48 51 50 47 46 42 39 38 37 39 40 38 35 34 35 36 38 39 40 40 39 39 39 39 39 38 38 36 33 31 29 28 27 26 25 24 22 20 19 19 18 17 16 16 16 18 19 18 15 13 11 10 8 8 10 8 7 8
36 37 35 31 27 22 23 26 31 37 34 31 36 40 38 37 37 36 35 32 29 28 28 27 26 28 38 48 51 51 49 47 43 40 39 40 41 41 38 35 34 35 36 37 38 39 40 40 40 40 41 40 39 38 35 33 32 30 29 28 26 25 23 22 20 20 20 20 18 17 17 18 18 19 18 16 14 13 11 8 7 8 6 6 7
36 37 35 31 27 21 18 18 18 27 34 35 37 40 39 37 36 35 34 32 29 28 28 29 28 27 34 46 51 50 49 48 45 43 43 45 45 42 38 37 35 35 35 36 38 40 40 41 40 41 42 42 40 39 36 33 31 30 29 28 26 25 23 22 21 21 21 21 20 19 19 19 18 17 16 15 14 14 12 8 7 7 5 6 7
34 33 34 33 29 24 20 18 14 13 24 34 39 40 39 38 35 33 32 31 29 28 28 31 31 28 30 40 50 51 49 50 47 45 46 47 46 43 38 37 36 34 33 35 37 40 41 41 40 40 43 43 41 40 36 32 30 29 29 28 26 25 24 22 22 22 22 22 21 20 20 19 18 17 15 14 14 13 11 9 7 7 6 6 7
32 31 31 33 32 29 26 23 16 9 13 23 36 41 40 39 36 34 34 32 30 29 28 32 34 31 29 35 46 52 52 52 50 47 46 46 45 43 40 39 38 35 33 33 35 39 41 40 39 39 41 41 41 40 37 32 30 29 28 27 26 25 24 23 23 22 21 22 22 22 22 21 19 17 16 15 15 14 13 11 9 9 7 6 7
30 30 30 31 32 31 28 27 20 11 8 14 27 38 42 41 39 37 36 34 32 30 30 32 34 32 31 32 40 50 52 51 51 48 45 46 45 43 41 40 39 36 33 32 32 36 38 38 39 39 39 38 38 40 39 34 31 30 28 27 27 26 25 24 23 22 20 21 22 22 22 21 20 18 17 17 17 17 16 13 11 10 8 7 8
31 31 31 30 31 31 29 27 23 14 8 8 17 31 41 42 40 39 38 36 33 31 30 32 34 33 31 32 38 47 51 51 50 47 43 44 45 44 41 40 40 38 32 29 31 34 35 35 36 37 37 36 36 39 41 37 34 32 29 28 28 26 26 26 24 23 22 22 22 22 22 22 21 20 19 19 19 19 18 15 13 12 11 10 9
34 33 33 33 32 32 30 28 24 17 11 8 9 23 37 43 42 41 39 38 35 32 31 33 34 33 32 34 37 43 48 51 51 48 45 44 45 45 43 41 42 41 35 30 32 34 34 33 34 35 36 35 35 40 42 40 36 33 30 29 29 28 27 27 26 25 25 24 23 23 23 23 23 22 22 21 20 21 20 18 16 14 14 13 11
35 34 33 34 33 33 31 29 25 20 15 10 7 15 32 43 44 43 41 39 37 34 32 33 33 34 34 35 37 39 43 49 51 51 48 46 46 47 45 43 42 42 39 35 34 33 31 31 32 33 35 34 35 41 43 41 37 34 32 30 30 29 28 28 27 26 26 26 25 24 24 24 24 24 24 23 22 22 22 20 18 16 14 15 15
36 35 33 32 32 33 31 28 26 22 18 15 10 9 25 41 45 45 44 41 39 36 33 32 32 34 35 35 36 36 38 44 49 51 50 48 49 50 49 46 43 42 40 38 37 34 30 30 31 32 34 35 37 41 43 41 37 34 33 32 31 29 29 29 28 28 28 27 26 26 25 24 24 24 24 23 22 22 23 21 19 16 16 17 18
36 36 35 34 32 32 31 28 26 23 20 18 13 9 18 37 44 46 46 43 41 39 35 33 32 34 35 35 35 35 34 39 46 51 52 52 52 52 51 48 44 42 41 40 38 34 31 31 32 30 32 35 38 39 41 40 37 34 32 32 33 31 30 31 29 29 29 29 27 26 25 23 23 24 23 22 22 22 22 21 18 17 16 17 18
35 36 36 36 34 32 32 29 26 24 21 19 16 11 13 31 44 45 47 45 42 41 37 34 33 33 35 35 35 34 33 35 42 49 53 54 53 52 51 49 46 44 43 41 39 35 32 31 30 29 30 36 39 38 40 40 36 34 32 32 33 32 32 32 30 29 29 29 28 26 24 22 21 23 23 23 22 22 22 20 18 17 16 17 17
33 34 36 37 34 32 32 30 27 24 22 20 18 14 12 26 42 45 47 48 44 42 38 35 34 34 35 36 36 35 34 34 39 46 52 54 53 52 51 49 47 45 44 42 39 36 34 30 28 28 29 34 39 39 40 40 37 34 34 33 33 33 34 34 31 29 29 29 28 26 24 21 21 22 24 25 24 24 23 21 19 18 17 17 17
32 33 36 37 35 34 33 32 28 24 22 20 19 16 12 22 40 44 47 50 46 42 39 36 35 35 35 35 36 35 34 35 37 42 49 53 53 52 51 49 48 46 45 43 40 38 36 31 29 30 30 32 37 39 40 40 38 36 35 34 34 34 35 34 32 29 28 28 28 26 24 22 21 22 24 26 26 26 25 23 21 19 18 17 17
31 35 36 36 35 34 34 33 31 26 23 22 20 17 12 18 35 43 46 50 48 42 39 38 37 36 36 35 34 34 35 36 37 40 45 51 53 52 51 50 49 47 47 45 42 40 38 34 31 32 31 31 34 37 40 41 39 38 37 36 36 35 35 34 32 30 28 28 28 27 25 23 23 23 23 26 27 26 25 24 21 20 18 16 16
35 37 38 36 35 34 33 32 31 28 24 22 22 18 12 14 29 41 46 49 50 45 40 40 40 37 36 35 34 34 34 36 38 39 43 48 51 52 52 52 50 48 48 46 43 41 39 34 32 31 30 30 32 35 39 40 40 39 38 38 37 36 35 34 32 31 29 29 29 28 27 25 25 25 24 25 27 26 25 24 22 21 18 16 15
39 40 40 37 34 33 33 31 30 29 25 23 22 18 14 12 21 37 46 48 49 47 42 41 40 38 38 36 35 34 34 36 38 39 41 44 49 51 52 52 51 49 49 48 45 41 39 36 33 30 28 28 31 34 37 39 39 39 39 39 38 37 36 35 33 32 31 30 30 29 27 26 26 27 26 26 27 27 26 24 23 21 19 16 15
39 39 38 36 34 34 33 31 29 27 25 22 21 19 16 13 17 31 44 46 47 47 45 41 41 40 39 38 36 35 36 37 38 39 39 41 45 50 52 53 52 50 50 49 46 41 39 38 35 32 29 28 29 31 35 38 39 39 39 39 39 37 36 36 35 34 33 33 32 31 29 28 28 28 28 27 27 27 26 25 24 22 20 17 16
38 35 35 36 37 36 33 31 30 27 24 21 20 18 16 14 19 30 40 45 46 48 46 42 41 41 41 40 39 37 37 38 39 39 38 38 42 49 53 53 52 51 51 51 47 42 40 39 38 36 34 31 30 29 31 36 39 39 40 40 39 38 37 37 36 35 34 34 34 32 31 29 29 28 27 27 27 27 27 26 24 22 21 19 18
37 38 40 38 38 37 35 32 31 27 23 20 18 17 14 12 21 32 39 42 44 45 44 41 40 42 43 42 40 38 37 39 40 39 38 38 40 45 50 52 52 51 51 51 48 44 42 41 40 39 37 35 32 29 29 33 37 38 40 40 39 38 37 37 36 36 35 35 35 34 32 30 30 29 26 26 27 28 27 26 25 24 23 21 20
41 46 46 40 38 38 37 34 32 27 23 18 16 15 12 10 18 31 39 41 40 39 40 40 42 43 44 41 38 37 37 39 41 40 38 38 39 42 47 50 53 53 52 52 49 45 43 43 42 41 39 36 35 32 29 30 34 37 39 40 39 38 37 37 37 36 35 35 35 35 34 31 30 29 26 24 25 27 27 26 26 26 25 23 21
46 47 45 42 41 39 37 35 32 26 22 17 14 13 11 9 15 27 36 37 35 32 33 37 40 42 41 39 37 37 37 39 40 39 38 38 39 42 44 48 52 55 53 51 50 48 46 44 42 41 40 38 37 34 32 31 32 35 37 38 39 38 38 37 37 36 35 34 34 35 34 32 31 30 27 24 24 25 26 27 26 27 26 24 23
42 43 44 45 43 40 37 36 31 24 21 16 12 11 10 9 14 25 33 34 31 29 30 34 38 39 39 38 37 36 38 40 41 38 36 37 40 42 44 45 50 54 54 49 46 47 47 44 42 42 42 40 37 34 33 33 33 33 35 37 38 38 38 38 37 36 35 34 34 34 34 33 32 31 29 27 25 24 25 26 26 26 26 25 24
43 45 46 46 44 42 38 33 26 21 20 16 13 11 10 11 14 21 29 32 33 33 32 34 37 37 37 36 36 36 38 41 42 39 36 36 39 42 44 45 47 51 53 51 46 45 46 46 43 41 41 39 36 35 35 35 35 34 35 35 36 37 38 38 37 36 36 36 34 33 33 34 33 33 31 28 27 25 23 24 25 26 27 27 25
46 46 46 44 43 41 33 23 17 19 19 16 15 11 10 13 15 18 25 29 30 30 28 29 31 33 34 34 35 37 39 42 42 40 37 36 37 40 42 45 46 47 50 52 50 47 48 48 44 42 41 39 37 37 38 37 37 36 35 34 35 36 37 37 36 35 36 37 35 33 33 34 34 35 33 30 29 27 24 23 25 26 28 28 26
46 46 45 43 41 35 21 11 13 17 17 15 15 12 11 14 15 18 23 26 26 24 22 23 25 28 31 33 36 39 41 43 44 42 40 39 39 39 40 43 46 47 49 51 52 50 48 48 46 43 42 42 41 40 38 37 38 38 36 34 35 36 37 36 34 32 35 37 36 33 33 34 35 36 35 32 30 29 26 25 26 28 30 29 27
45 45 45 43 41 31 13 6 10 13 14 15 15 12 12 16 18 18 21 24 25 25 23 24 25 27 31 35 38 41 43 43 44 43 41 41 42 40 39 41 45 47 48 50 52 53 50 48 48 46 45 45 43 41 40 39 39 39 37 36 37 39 39 37 34 33 34 35 35 34 33 33 35 37 37 34 32 30 28 27 27 29 31 30 28
44 43 45 43 38 26 11 2 7 12 12 14 15 10 10 17 20 18 19 22 25 26 26 27 27 28 32 36 39 41 42 41 42 42 40 41 43 41 38 40 44 46 47 48 50 52 52 52 52 51 50 48 46 44 43 42 42 41 39 38 41 42 41 39 38 36 35 34 35 35 34 35 36 37 37 35 32 30 30 29 29 30 31 30 28
43 42 43 39 32 22 12 4 4 10 11 12 13 8 8 16 21 20 20 21 22 24 26 28 28 28 31 35 37 38 40 40 40 41 41 41 41 40 38 39 42 44 46 46 45 46 50 52 53 53 52 51 49 47 45 44 43 42 41 42 44 44 42 42 43 41 38 37 36 34 35 37 38 38 37 35 33 31 30 30 30 30 31 30 29
43 42 41 36 31 25 16 7 1 5 7 9 11 8 7 15 20 20 20 19 19 22 24 24 24 25 28 33 35 33 34 37 37 37 38 38 38 39 40 39 41 42 42 41 40 41 43 45 47 48 51 53 53 50 47 45 43 43 43 44 45 45 45 46 46 43 39 38 36 34 35 38 41 41 38 35 33 32 32 31 30 30 30 30 29
42 40 40 35 32 30 21 11 5 4 2 7 9 7 6 12 16 16 16 19 22 23 20 20 20 22 25 29 33 32 30 32 35 35 34 35 37 39 38 36 36 37 37 37 37 38 40 40 40 42 45 50 53 51 48 45 44 43 45 45 45 47 48 48 46 43 39 37 35 34 33 36 42 43 39 35 34 33 33 32 31 30 30 29 28
43 42 41 36 33 33 29 21 15 9 1 6 9 7 6 9 12 12 17 23 23 17 12 13 15 20 24 26 30 32 29 28 32 34 34 34 34 33 31 32 33 32 32 34 36 38 39 39 38 39 42 46 49 50 47 46 45 44 45 46 46 47 47 46 45 42 40 37 35 34 33 35 41 43 38 34 34 34 34 32 31 30 29 27 27
43 43 41 37 35 35 33 29 24 17 7 3 6 6 6 8 10 12 18 24 20 11 10 11 13 21 28 28 26 26 26 24 25 29 31 30 30 29 29 30 32 32 31 33 34 35 37 36 36 39 42 44 47 48 47 46 45 44 45 47 46 45 44 43 42 42 41 37 34 34 33 35 40 42 37 34 33 34 33 32 30 29 27 25 25
44 44 42 39 38 37 34 30 27 25 19 9 6 8 9 9 10 11 17 23 20 12 13 13 13 19 25 25 23 22 23 25 24 24 27 28 25 25 26 27 29 30 30 30 31 32 33 32 33 36 39 41 42 43 44 44 43 42 43 45 44 43 43 42 40 41 40 37 34 33 33 35 39 40 36 33 32 33 33 32 29 27 25 25 25
44 44 42 40 38 36 34 32 29 28 25 20 12 9 9 9 8 8 14 23 24 20 19 17 14 15 16 17 19 21 21 24 24 23 24 25 24 23 23 24 25 26 26 27 29 30 30 30 31 33 34 35 36 36 37 39 40 40 41 42 42 43 42 39 38 38 38 36 33 31 32 35 39 39 35 32 32 32 32 30 27 25 25 25 24
43 42 41 39 37 33 32 32 30 26 25 25 21 14 11 10 7 2 9 20 24 24 25 24 20 17 14 10 12 17 17 18 21 24 23 22 22 23 24 25 25 24 24 26 27 28 29 29 29 30 32 32 32 32 32 34 36 38 39 39 39 39 37 35 35 36 36 33 31 30 32 37 41 40 35 32 31 31 30 28 26 25 25 25 25
42 40 39 38 35 31 30 31 29 26 23 24 23 19 16 12 8 5 3 12 17 18 21 21 18 16 14 9 10 15 16 15 19 23 23 22 22 23 25 27 28 28 27 28 28 28 28 28 29 30 31 31 31 30 31 31 32 33 35 34 31 30 30 31 32 33 31 30 30 31 35 39 42 40 34 31 31 30 29 27 26 26 26 26 26
42 40 38 38 34 30 30 30 27 25 23 23 21 19 16 13 9 8 8 6 8 11 11 9 7 7 9 10 11 14 17 17 17 16 17 18 19 21 24 26 29 31 32 32 32 30 29 29 30 31 31 30 30 30 29 30 30 30 31 30 28 27 28 28 29 29 29 30 32 35 37 40 40 37 31 29 30 29 28 27 27 27 28 27 27
41 39 38 38 36 33 32 30 27 25 24 22 20 17 15 14 10 7 9 10 7 3 2 4 5 1 5 10 12 14 16 17 16 13 10 10 12 16 19 22 26 31 35 37 36 34 33 33 33 33 32 30 30 29 29 31 31 30 30 30 29 28 28 27 26 25 25 28 32 34 36 39 37 32 28 29 30 29 29 29 29 30 30 29 28
40 39 39 39 38 35 32 30 28 26 23 20 19 16 13 11 10 8 6 6 7 7 6 6 6 5 4 6 11 13 14 14 14 14 12 11 11 11 13 14 17 22 29 33 35 35 36 36 35 34 33 31 31 31 32 32 30 28 28 28 28 27 27 26 25 24 24 28 32 32 32 35 34 30 28 31 32 32 32 32 32 32 32 31 29
40 40 39 39 39 37 34 31 28 25 22 20 18 16 12 9 8 8 7 4 4 5 5 5 5 5 5 5 6 9 11 13 13 13 13 13 13 12 13 12 12 16 21 25 28 30 32 33 34 34 33 34 35 34 31 29 28 27 26 27 27 28 29 28 28 28 29 33 35 33 32 33 33 31 31 34 35 36 36 35 35 34 33 32 31
39 39 38 38 39 38 36 33 30 25 21 19 17 15 12 8 7 7 6 6 4 3 2 2 2 3 3 3 3 4 7 10 11 11 10 11 12 13 14 14 13 15 19 21 23 25 26 28 31 32 33 33 33 31 28 27 28 27 27 28 29 30 31 32 32 33 35 37 38 35 35 37 36 34 34 36 37 38 39 39 37 36 35 34 33
38 38 38 38 39 38 38 37 34 28 23 19 16 14 12 8 6 5 5 4 4 3 1 1 1 2 2 1 1 1 3 5 7 9 10 11 11 12 13 14 14 15 17 19 21 21 23 26 29 31 31 32 31 29 29 30 30 29 28 30 31 31 32 33 34 36 39 42 41 39 39 39 37 35 36 37 37 39 40 40 39 38 37 36 35
Wind_Direction
258 250 253 258 256 256 252 243 235 231 229 226 224 222 221 222 221 218 219 222 223 223 218 213 215 217 219 220 218 216 214 214 215 216 220 224 225 223 217 214 212 209 208 208 208 209 213 217 216 212 211 210 211 214 215 214 213 214 215 217 219 219 215 215 217 219 225 236 246 249 251 257 264 276 284 280 281 289 298 307 313 314 313 310 317
275 263 255 249 253 261 261 254 239 231 228 225 224 223 222 222 222 220 218 221 225 228 225 219 217 218 218 219 216 212 208 210 215 216 218 222 223 222 219 215 212 210 208 208 210 210 211 214 215 215 215 214 214 217 220 221 222 220 220 221 225 228 225 222 225 228 233 240 249 253 255 258 263 271 270 261 264 274 284 295 302 305 304 294 295
282 275 265 253 253 261 263 263 251 237 230 227 225 223 221 222 223 221 219 221 227 232 230 224 222 222 221 221 216 211 207 209 215 217 218 221 223 223 221 217 213 211 210 208 210 212 210 212 215 217 218 219 218 220 222 225 226 225 224 224 226 232 230 226 227 230 234 240 248 253 257 264 267 265 256 253 257 261 265 278 286 290 292 284 281
291 282 271 256 249 253 259 260 257 245 233 227 224 221 219 220 220 217 214 215 216 224 229 226 225 223 219 218 215 213 213 214 216 220 222 223 223 224 222 218 214 212 211 209 210 213 213 213 216 218 222 224 224 226 226 227 227 226 226 225 227 232 230 226 226 229 235 238 242 247 253 262 265 255 248 252 253 250 253 260 269 276 276 272 273
318 299 281 260 245 244 249 252 251 248 238 229 224 221 219 218 217 211 208 209 208 216 225 222 221 217 212 210 208 208 209 209 210 215 219 220 221 222 221 218 215 213 211 210 211 214 215 215 216 219 223 226 229 231 231 230 228 227 227 227 229 233 232 231 232 233 238 239 239 241 244 252 255 250 244 250 251 249 250 248 254 264 262 258 262
349 333 308 277 255 246 243 244 247 244 241 235 227 222 220 217 213 210 210 212 212 220 225 222 219 214 211 208 206 205 203 202 206 210 214 218 220 221 220 218 218 215 211 211 211 214 216 216 217 220 224 227 230 233 235 234 231 227 227 230 233 236 236 237 238 237 237 237 237 239 244 252 259 257 239 238 249 254 253 245 246 255 254 248 255
352 351 343 314 279 262 248 240 242 242 240 238 228 221 218 214 210 211 215 215 214 220 223 224 221 216 214 213 211 208 205 204 204 209 215 218 219 221 220 218 218 217 213 212 212 214 215 216 219 221 224 228 231 235 236 234 231 228 227 230 234 238 240 240 240 237 233 232 232 234 242 250 258 259 239 234 250 260 260 248 241 248 248 243 250
345 348 352 345 317 289 268 246 239 240 237 231 224 219 215 211 210 212 216 215 213 214 219 224 225 219 215 214 213 211 212 211 206 208 214 216 217 220 221 218 217 217 217 214 213 214 216 217 220 223 225 228 231 235 236 234 232 230 228 229 232 235 239 241 240 235 231 231 227 225 233 243 251 255 249 248 254 258 259 247 239 245 247 244 249
342 345 347 350 343 319 297 270 246 237 234 227 219 216 212 209 209 212 214 213 211 212 218 226 229 223 216 214 212 211 215 217 213 209 209 212 216 219 221 220 217 217 218 217 216 216 218 220 222 225 227 230 232 234 234 235 233 230 228 227 229 232 235 238 237 233 231 231 226 223 229 236 245 251 251 251 251 251 253 249 246 245 241 243 252
338 340 340 342 347 340 323 300 259 235 229 224 215 210 208 205 205 208 212 212 211 214 222 231 234 225 217 215 213 213 215 217 215 211 208 210 214 216 218 221 221 219 219 219 219 219 220 223 224 227 229 231 233 234 232 231 231 230 227 226 227 231 234 235 233 230 231 232 229 227 230 235 240 245 246 244 242 243 248 248 241 236 228 229 246
332 335 334 332 337 342 341 329 286 240 223 214 209 206 203 201 202 205 210 213 214 217 226 237 239 230 221 217 215 215 215 213 211 210 210 211 213 214 216 220 222 221 220 220 221 221 222 225 226 226 228 231 235 236 232 229 229 228 226 224 226 230 234 236 232 227 228 228 228 228 229 234 240 246 249 246 244 244 248 247 234 233 227 216 229
328 329 331 328 328 333 338 341 328 269 229 212 206 205 202 200 203 208 213 215 217 220 229 240 240 234 229 221 217 217 218 215 212 211 212 214 215 216 216 218 219 218 218 221 222 221 222 225 226 226 226 229 235 237 233 228 227 226 225 225 225 229 232 234 232 228 226 224 225 228 231 235 240 244 249 250 249 247 250 248 241 248 241 217 224
326 324 325 326 325 325 327 332 337 316 262 228 211 206 205 206 208 213 217 217 217 223 234 242 241 236 234 228 221 220 220 217 213 211 213 217 219 219 217 215 215 214 214 220 224 222 221 223 224 224 226 228 234 238 234 228 226 224 226 227 227 229 230 231 230 229 227 226 228 232 236 238 239 237 237 241 243 244 247 245 244 255 248 217 225
323 322 321 322 322 320 317 321 328 334 310 260 227 213 208 210 213 215 217 218 219 225 234 239 239 236 235 234 226 220 220 218 213 210 213 217 221 222 220 217 216 214 213 218 224 224 223 224 224 226 228 230 234 237 234 229 226 224 225 229 229 229 229 228 228 228 229 230 232 235 237 240 241 235 231 233 237 243 249 248 247 256 250 224 220
322 321 320 320 321 319 314 312 316 324 333 297 247 225 214 211 213 215 216 217 219 224 231 235 238 236 235 236 229 222 221 221 219 217 217 219 220 221 222 222 219 217 216 219 223 224 226 227 228 229 231 231 234 237 234 229 227 225 223 227 230 230 229 228 227 227 230 233 234 237 240 242 242 237 232 233 236 241 248 251 251 254 253 242 231
321 321 321 321 321 320 315 310 309 311 317 318 266 234 221 213 212 215 217 218 219 224 231 235 237 236 234 236 231 225 224 224 223 221 220 222 222 221 222 224 222 219 218 221 224 225 227 229 230 231 231 231 234 236 232 228 228 227 223 223 227 229 229 230 230 230 232 235 237 240 242 243 241 237 236 236 237 240 244 248 251 251 251 251 245
321 320 321 322 322 321 316 308 305 303 299 302 288 239 226 218 214 215 217 218 218 222 229 233 235 234 232 234 233 229 226 225 224 222 221 220 222 223 224 225 226 224 221 222 227 227 227 229 231 232 231 229 231 234 230 226 227 228 226 224 226 227 228 230 233 234 235 237 239 244 246 243 237 233 234 235 235 235 237 241 246 247 245 247 249
321 321 322 322 323 323 319 310 301 296 291 288 289 250 227 221 218 217 216 217 217 219 225 230 232 232 230 231 234 233 229 228 227 225 222 220 220 224 225 225 228 230 226 225 227 227 227 229 230 232 229 225 228 230 226 224 226 228 228 227 226 226 226 229 234 237 238 240 243 246 246 241 233 229 230 231 231 229 230 235 238 237 237 241 248
321 322 323 324 324 324 323 315 300 290 285 279 278 272 232 222 221 220 219 219 217 216 221 227 231 231 229 230 235 235 233 230 228 226 224 222 223 226 227 225 227 230 228 226 226 225 226 229 230 230 228 225 226 225 222 222 224 227 229 228 226 225 225 227 233 237 239 242 243 242 240 235 229 226 226 226 226 225 228 232 232 231 233 237 244
320 322 324 325 325 325 324 320 306 288 280 276 271 278 248 223 220 221 219 218 216 214 218 225 229 230 228 227 231 234 233 232 230 226 224 224 226 226 226 225 225 227 227 226 223 223 226 230 231 231 229 227 224 220 219 221 224 227 229 228 226 226 227 228 233 238 241 242 240 236 235 233 227 224 223 224 223 224 229 232 230 229 231 235 240
320 322 324 325 325 325 325 323 314 293 278 274 268 275 263 223 217 220 218 215 214 213 216 223 227 230 228 226 227 230 232 233 233 228 224 224 226 226 225 225 225 225 226 225 221 222 227 228 229 232 231 227 223 218 218 221 223 227 229 230 229 229 229 231 233 237 240 241 238 233 233 232 229 225 222 222 223 225 231 233 229 228 230 233 237
319 322 323 323 322 322 322 321 318 302 280 269 264 269 267 221 214 218 218 215 214 214 215 220 225 228 227 225 225 227 230 234 235 231 226 223 224 226 224 224 225 226 226 226 223 224 227 226 226 231 232 228 224 220 220 222 224 227 230 232 232 232 232 233 234 236 237 238 236 232 232 232 231 229 223 222 223 225 230 232 228 228 230 232 237
318 320 321 321 318 317 317 315 315 308 287 268 260 265 265 220 211 215 217 216 215 213 214 218 222 225 225 224 224 226 229 234 235 234 229 224 223 224 224 224 225 226 226 226 225 226 229 228 228 231 232 232 229 225 224 225 226 227 229 232 233 234 234 233 234 235 236 236 234 232 232 232 234 233 225 221 222 224 228 231 229 229 230 232 237
320 319 318 317 315 313 313 310 309 308 294 270 259 261 261 227 213 214 216 216 215 213 212 214 218 223 224 224 225 226 229 233 236 235 232 227 224 223 224 225 225 225 226 226 226 228 231 231 233 234 234 235 234 229 227 227 227 226 226 229 232 234 235 236 237 238 238 237 234 233 233 233 234 234 226 221 220 221 225 229 229 229 230 231 236
319 317 316 315 313 311 309 307 304 303 296 275 259 256 258 244 221 216 215 214 213 211 209 211 216 222 224 224 225 228 231 234 235 235 233 230 227 225 224 226 225 225 226 227 226 229 231 232 233 234 233 235 237 233 230 229 228 226 225 228 231 233 235 239 241 242 242 240 238 236 236 236 236 234 227 221 219 218 221 225 227 228 230 232 234
315 314 313 312 312 310 307 305 302 299 295 280 261 255 257 246 223 217 215 213 212 210 208 211 216 222 225 225 226 229 232 235 236 235 235 233 230 227 225 225 226 226 226 227 227 227 230 232 233 232 232 234 238 238 235 232 230 228 227 229 231 232 234 238 242 244 244 243 241 239 239 240 239 236 230 224 219 217 219 222 225 226 229 231 231
313 312 313 312 312 312 308 305 302 297 291 279 260 254 261 246 217 210 211 213 213 210 208 211 217 223 227 228 228 229 232 236 237 236 235 235 234 230 226 225 225 224 225 226 226 226 229 231 232 234 234 234 237 240 239 236 234 232 231 231 232 232 233 235 239 242 243 244 243 241 240 241 241 239 234 228 222 218 218 221 224 225 227 228 230
314 316 318 316 313 312 309 304 302 296 285 272 256 250 261 247 213 205 207 211 214 213 212 215 220 225 228 229 228 229 233 237 238 237 237 237 236 234 230 227 225 224 223 224 224 224 227 229 231 234 235 235 236 238 240 239 237 235 234 234 234 234 233 234 236 239 240 242 243 241 240 240 241 239 236 233 227 221 220 222 224 225 226 228 230
319 320 320 317 313 311 308 303 301 295 280 265 250 245 253 243 214 207 208 211 214 217 219 221 223 226 228 229 229 229 232 236 237 236 236 237 238 236 233 230 227 226 225 224 224 224 226 228 229 232 234 233 232 234 236 237 237 235 235 236 236 237 236 235 236 238 238 239 241 240 238 237 238 237 235 235 233 228 225 224 224 225 225 227 230
319 319 318 315 311 308 305 301 298 289 271 256 243 240 242 233 214 206 206 209 213 219 225 225 225 226 228 229 230 231 233 236 236 234 234 237 238 236 234 231 228 226 225 223 222 223 226 227 228 231 232 231 229 231 233 234 234 233 234 235 236 238 239 238 238 238 238 238 239 239 237 235 236 235 234 235 236 234 231 229 229 229 228 227 229
316 317 316 315 311 307 302 299 293 278 259 243 229 231 230 215 210 207 207 210 214 219 228 229 225 226 228 231 233 234 236 238 237 235 234 235 236 234 231 230 228 226 225 223 221 221 225 226 227 230 231 230 229 230 233 235 235 233 232 233 234 236 239 240 239 239 238 238 238 239 237 235 234 234 234 234 234 234 234 232 232 234 234 234 234
319 318 317 316 313 309 304 297 284 261 245 227 209 215 213 194 196 204 207 212 216 219 224 226 224 224 227 231 233 235 236 238 238 237 236 234 234 233 230 228 228 228 228 227 226 225 227 227 227 228 229 229 229 231 234 237 237 235 233 233 233 235 238 241 241 240 240 239 237 237 237 234 233 233 234 233 231 230 230 230 231 234 236 237 238
322 320 319 317 317 316 310 294 261 235 225 207 194 198 193 186 192 199 201 205 211 213 216 221 224 226 228 232 234 234 236 238 238 239 238 235 233 233 232 229 229 230 228 227 227 228 229 228 227 227 228 229 229 230 233 237 238 237 235 234 237 239 241 243 243 243 243 241 239 237 236 235 234 234 235 233 229 226 225 224 226 231 233 234 236
324 324 325 325 330 333 321 274 226 213 206 193 188 187 174 176 192 202 203 204 207 209 214 222 227 231 234 236 235 235 236 237 239 239 238 236 234 235 234 230 228 230 229 226 226 226 227 227 226 227 229 230 230 231 234 237 237 238 238 239 242 242 242 243 244 246 247 246 243 241 237 235 235 234 233 232 228 225 224 224 225 227 230 231 232
328 331 333 336 345 351 336 242 205 198 191 182 181 179 171 178 190 199 206 208 206 206 212 219 224 230 236 238 238 236 233 233 236 236 234 233 233 235 236 233 229 229 228 228 227 226 225 225 227 230 232 231 230 232 235 237 237 238 240 242 244 242 241 241 244 247 248 248 249 248 243 237 235 234 232 230 228 226 225 226 228 229 230 230 231
334 338 340 344 354 2 357 261 189 187 182 178 180 178 177 186 190 192 197 205 210 212 216 220 226 233 237 238 238 236 231 228 229 230 227 227 229 233 235 233 229 229 228 227 227 227 228 229 231 234 235 233 230 231 235 235 235 237 238 240 242 241 240 241 242 242 242 244 248 249 245 237 233 233 233 231 228 227 227 227 228 230 231 231 230
343 346 348 356 9 14 11 22 165 181 179 177 179 175 179 188 192 198 206 216 222 221 220 223 229 236 239 238 236 233 228 224 222 221 223 226 229 233 236 233 230 230 229 228 227 228 230 233 235 237 236 234 232 233 234 233 233 234 236 238 239 238 238 240 242 241 242 244 244 246 246 241 235 233 233 231 229 229 229 228 228 229 230 229 229
349 352 357 7 20 23 24 28 73 174 182 186 180 173 183 191 197 210 220 223 217 211 215 224 230 236 241 239 233 228 226 224 221 219 221 224 227 228 228 229 230 230 229 227 226 227 230 235 237 237 236 235 235 235 235 234 233 234 235 237 237 237 239 242 243 242 244 244 242 243 247 247 241 236 233 231 230 230 230 229 228 227 228 227 228
354 358 2 8 19 31 45 65 74 85 162 196 186 183 192 191 197 212 219 212 203 202 216 230 233 238 242 237 228 222 221 224 224 223 222 224 226 222 220 223 229 231 231 229 227 227 231 235 238 237 235 234 234 235 236 236 235 235 236 237 238 238 241 243 243 241 240 240 239 240 243 245 243 239 233 231 232 232 231 230 228 228 229 231 233
359 4 9 15 23 32 47 63 67 62 95 208 197 196 196 188 196 212 217 209 200 200 227 241 240 240 237 229 222 217 215 218 220 219 219 222 224 222 221 226 229 230 232 233 231 230 232 234 234 232 231 231 233 235 237 236 236 235 235 236 238 239 241 243 243 242 239 236 237 239 240 242 242 238 233 233 234 234 233 231 230 230 234 237 238
3 8 15 21 24 29 46 62 65 62 65 199 206 188 174 185 204 220 222 212 196 198 244 245 240 243 234 219 209 208 209 210 211 210 210 212 218 222 225 228 226 224 225 228 229 232 234 234 232 229 228 228 231 234 236 238 239 238 236 236 238 240 242 243 244 244 239 235 238 239 239 242 241 236 233 234 235 234 234 233 233 236 240 242 241
7 12 18 22 25 33 50 60 61 63 68 83 150 165 164 187 211 224 225 215 203 216 247 236 232 245 236 212 192 190 198 202 202 202 202 203 207 212 216 219 218 218 219 221 225 229 230 230 230 229 229 229 230 234 237 239 240 240 239 239 239 242 244 243 244 244 239 236 239 242 243 244 240 234 234 236 234 233 234 234 235 238 241 242 242
9 13 17 21 25 35 46 50 53 61 68 77 100 139 161 182 199 220 227 218 212 219 231 228 224 231 226 205 183 177 188 198 198 196 197 199 200 199 201 207 211 214 218 220 223 225 225 227 228 229 230 230 231 233 236 237 238 238 239 239 239 241 242 243 246 246 240 238 242 245 247 246 238 232 233 234 232 232 234 234 233 236 240 242 240
11 12 16 21 26 33 39 43 50 60 65 71 81 99 130 156 167 203 231 220 218 225 233 233 225 209 202 205 188 174 177 192 198 198 197 200 204 205 204 207 209 214 220 223 223 224 225 227 229 230 231 231 231 231 233 234 235 235 236 239 240 241 241 241 243 242 239 242 247 247 248 244 234 229 232 233 232 232 233 233 233 234 237 238 234
13 15 18 22 26 29 32 38 49 57 61 66 74 89 107 123 125 103 171 211 222 240 246 239 231 215 200 198 196 187 185 191 200 204 204 203 205 208 210 214 217 219 220 221 223 225 226 227 229 231 232 232 232 232 230 229 229 230 232 235 237 239 240 238 237 236 237 244 247 246 246 241 230 225 228 230 230 231 232 233 235 235 233 233 231
16 17 18 20 23 26 28 35 46 52 55 59 67 77 82 82 97 107 96 126 196 239 247 226 224 240 222 204 201 203 206 207 205 204 208 214 215 214 214 217 221 221 219 220 224 227 229 231 231 231 231 231 232 232 229 227 227 229 230 230 228 231 236 237 238 239 240 244 246 246 248 242 229 223 226 228 229 231 231 233 235 233 231 232 233
15 18 20 21 23 25 26 31 37 40 43 50 60 69 68 61 74 95 78 79 108 174 219 149 130 168 229 218 213 210 211 217 216 208 211 227 233 233 230 225 223 222 222 223 227 230 233 234 233 232 230 229 230 230 227 225 225 224 223 221 220 225 231 235 239 242 244 246 245 245 247 242 231 225 228 231 232 233 231 231 231 229 229 232 236
16 19 23 25 26 26 25 26 30 32 32 36 47 60 68 64 65 74 72 67 73 69 64 82 103 116 152 201 218 218 215 219 222 221 220 222 227 237 242 237 232 229 228 228 230 231 232 233 233 231 228 226 227 227 222 217 216 214 214 216 220 225 230 232 234 237 240 243 242 240 238 234 229 227 229 230 230 231 232 232 230 228 228 229 232
17 20 25 28 29 28 27 26 26 28 28 27 33 45 58 64 61 63 74 75 55 50 55 62 81 110 128 152 196 218 221 220 223 227 227 228 230 232 233 234 236 238 240 240 237 233 232 234 235 234 230 227 227 226 222 218 216 214 216 221 228 232 233 233 232 231 230 231 233 231 226 224 225 228 230 230 229 229 229 230 230 228 228 226 227
18 21 26 30 31 31 31 29 27 26 25 24 24 29 39 52 54 49 60 76 78 65 48 54 95 122 123 123 158 209 222 224 227 230 236 246 254 252 246 243 240 239 243 246 246 242 240 240 241 239 237 234 231 227 226 229 229 227 227 230 234 236 235 232 231 229 227 227 227 224 221 221 224 226 227 229 230 228 227 227 227 226 227 227 229
17 21 25 28 31 32 33 32 29 27 24 22 19 19 22 30 39 37 37 54 74 83 93 191 182 160 159 158 196 255 254 248 247 253 262 270 272 266 260 257 255 251 249 248 250 250 246 243 242 241 241 242 239 233 233 239 241 241 242 243 242 239 235 233 232 229 227 227 226 222 220 222 225 226 227 229 230 229 227 227 227 225 226 228 231